Vorticity
7 6 7 9 2 1 10 5 2 2 5 10 9 9 1 3 2 3 15 9 6 5 4 5 5 4 5 4 6 5 5 5 4 5 5 5 5 5 5 5 7 7 6 6 4 5 5 4 4
8 7 6 9 -4 2 7 4 10 8 4 5 8 9 9 7 7 6 -7 8 5 5 5 4 4 5 5 5 5 5 5 5 5 5 5 5 6 6 6 7 7 8 6 5 8 10 5 5 4
7 8 7 3 10 5 11 3 1 3 2 5 8 11 9 3 14 6 8 7 4 5 4 4 4 5 5 5 5 5 5 7 7 5 5 5 5 6 7 6 7 7 7 6 6 10 6 5 4
6 6 2 0 -4 10 -0 0 1 3 4 3 8 11 9 13 2 13 6 3 5 5 5 4 5 5 5 5 5 5 6 7 7 6 5 5 6 6 7 6 6 7 7 6 7 10 8 7 5
6 5 3 3 8 7 3 1 7 3 4 2 6 8 8 2 8 8 10 5 5 5 5 4 4 4 5 5 4 5 6 6 5 5 5 6 8 8 7 7 7 8 8 7 8 9 11 10 9
7 5 -1 10 13 3 2 5 5 5 1 4 6 6 9 8 7 8 7 6 6 5 5 4 4 4 4 4 5 5 5 5 5 5 5 8 8 8 8 7 7 8 9 8 7 7 7 9 9
6 3 3 5 5 8 4 3 5 2 4 5 7 7 13 10 13 7 7 7 6 5 5 5 4 4 4 4 5 5 4 5 4 5 7 8 8 7 8 6 6 9 7 6 8 9 8 8 8
8 6 4 9 8 10 9 9 7 6 2 1 4 6 -5 1 16 8 9 8 7 7 6 5 5 5 4 4 5 5 4 4 4 5 7 9 11 8 7 8 7 7 8 7 8 7 7 8 7
8 6 5 9 9 9 7 6 5 3 2 4 5 8 7 7 7 7 10 10 10 8 8 6 6 5 5 5 5 5 4 4 3 4 6 8 8 10 9 10 9 7 7 7 6 6 6 6 7
9 7 11 9 7 4 3 5 5 6 8 10 9 8 6 6 8 7 5 7 8 8 8 6 6 6 5 5 5 5 5 4 4 5 7 8 8 7 8 7 8 8 6 7 6 6 5 4 5
11 10 10 9 9 10 11 9 8 8 8 5 7 8 8 9 10 10 9 7 4 5 7 6 6 6 6 6 5 5 5 4 5 5 7 8 8 8 7 7 7 8 8 6 6 5 5 4 4
9 10 9 7 8 10 9 8 7 6 5 4 5 7 7 8 8 9 10 9 6 8 7 7 7 6 7 6 5 5 5 4 5 7 8 8 8 8 8 9 8 7 7 8 6 5 4 5 3
7 6 10 10 6 4 1 12 19 13 16 16 14 8 8 8 9 10 10 9 7 8 7 6 6 7 6 6 6 5 5 5 5 7 6 3 3 3 4 4 6 8 8 7 8 8 5 5 5
12 8 7 -4 -11 14 1 26 -7 11 11 13 11 9 12 9 6 7 9 8 11 9 8 7 6 7 7 6 6 6 5 5 6 5 3 3 3 4 5 7 9 10 9 8 8 8 8 7 6
11 -2 -5 16 2 11 10 1 16 -1 12 13 22 21 14 7 9 10 5 4 5 6 6 7 6 7 7 7 7 6 6 5 6 4 3 3 4 4 4 4 4 5 9 14 12 9 10 8 7
4 16 6 -3 8 1 8 -5 20 -1 14 0 11 17 21 8 12 8 9 10 9 8 8 6 7 8 8 7 7 6 5 5 5 4 2 2 2 4 4 4 4 4 5 7 9 11 11 11 10
7 -1 1 17 3 1 5 20 -3 16 8 7 7 11 18 23 6 8 11 10 11 10 8 8 8 8 8 8 7 7 6 6 5 4 3 3 3 3 4 3 3 3 2 3 5 8 12 12 10
0 7 -1 5 -7 6 4 13 9 14 12 6 10 16 19 21 18 5 4 3 4 7 9 9 7 7 8 9 8 7 7 6 5 4 4 4 3 3 4 4 3 3 3 3 3 2 4 5 12
7 6 4 7 13 -2 5 12 14 14 6 6 11 13 19 22 21 17 13 14 12 12 14 11 10 10 10 9 8 8 6 5 5 4 3 4 4 4 4 4 4 4 5 4 3 2 2 4 6
10 4 5 21 -7 2 7 8 24 12 3 3 7 7 4 9 13 13 11 9 13 13 13 13 11 10 9 8 7 6 5 5 4 4 4 3 3 4 4 4 5 6 6 6 6 6 6 4 3
9 5 10 5 -2 4 15 29 15 4 2 6 5 5 10 11 12 10 10 11 12 13 10 12 12 11 10 8 7 6 6 5 5 4 4 4 3 3 3 4 4 5 6 7 6 7 6 6 6
4 12 6 2 10 8 -3 0 6 7 6 3 5 6 10 11 12 10 8 7 8 13 15 14 12 10 9 8 7 6 6 6 6 6 6 5 4 3 4 5 5 5 5 6 6 7 7 7 8
0 4 8 1 3 27 27 13 14 18 8 2 5 -0 6 13 7 6 6 6 8 10 11 13 10 9 8 7 6 5 5 4 4 4 4 3 2 3 3 4 5 5 6 6 6 5 4 7 11
2 8 8 18 20 17 15 0 24 10 13 7 8 3 4 8 0 8 10 11 9 8 10 10 13 11 8 7 7 5 5 4 4 3 2 2 2 3 4 4 4 4 5 6 6 5 5 9 10
9 3 16 16 11 -1 13 15 -36 -5 9 9 9 6 3 5 3 6 13 10 8 7 6 7 7 8 9 9 7 6 6 5 4 4 3 3 4 5 5 6 6 6 6 4 2 8 9 11 10
13 -2 -14 10 7 3 6 12 -7 22 16 9 7 5 2 7 6 8 19 8 8 7 6 6 6 5 5 7 7 8 9 11 12 10 9 8 7 7 8 8 7 5 1 1 9 4 11 13 10
18 15 14 -4 14 9 9 23 3 6 8 13 11 8 1 6 1 23 11 5 6 6 4 3 4 6 5 4 3 3 5 5 7 11 12 12 10 8 5 0 -3 2 9 7 5 9 17 12 7
5 -3 6 12 4 10 20 13 -27 -7 23 11 7 6 1 -3 11 7 14 -4 4 9 12 9 7 4 2 3 3 7 10 13 11 9 10 11 11 7 4 4 12 9 8 11 16 18 15 5 4
15 7 3 -1 -3 5 3 18 9 12 16 15 14 9 0 2 2 6 21 1 14 10 0 -12 2 12 6 9 11 11 9 7 8 9 10 10 9 9 9 10 11 11 11 11 11 8 4 7 6
6 6 11 -9 23 -0 -0 8 7 14 18 18 12 6 3 3 -2 18 15 -12 4 -4 -2 12 11 11 13 7 5 4 3 5 6 8 9 5 3 5 8 9 9 9 11 13 12 11 10 10 10
Height
3125 3126 3126 3128 3133 3130 3129 3130 3130 3131 3131 3131 3130 3130 3131 3131 3132 3136 3133 3133 3134 3135 3136 3137 3137 3137 3138 3137 3137 3137 3137 3137 3137 3138 3137 3137 3137 3137 3137 3136 3136 3135 3135 3135 3134 3134 3133 3133 3133
3125 3126 3127 3127 3129 3128 3129 3129 3130 3131 3131 3130 3130 3129 3130 3130 3131 3132 3133 3133 3134 3135 3135 3136 3136 3136 3137 3137 3137 3137 3137 3137 3137 3137 3137 3138 3137 3137 3137 3136 3134 3134 3134 3133 3133 3133 3133 3132 3132
3125 3126 3127 3127 3126 3126 3128 3129 3129 3130 3130 3130 3129 3128 3128 3129 3129 3130 3131 3132 3133 3134 3135 3135 3135 3136 3136 3136 3136 3137 3136 3137 3137 3137 3137 3137 3137 3137 3136 3135 3134 3132 3133 3132 3132 3132 3132 3132 3132
3124 3125 3127 3125 3125 3126 3127 3128 3128 3129 3130 3129 3128 3128 3128 3128 3129 3129 3130 3132 3132 3133 3134 3134 3134 3135 3135 3136 3136 3136 3136 3137 3137 3137 3137 3136 3136 3136 3135 3134 3133 3132 3132 3132 3131 3131 3131 3131 3132
3123 3123 3123 3123 3124 3124 3125 3126 3127 3127 3128 3128 3127 3127 3127 3127 3127 3128 3128 3130 3131 3132 3132 3132 3133 3133 3134 3135 3135 3135 3136 3136 3137 3136 3136 3135 3135 3135 3134 3134 3133 3132 3131 3131 3131 3130 3130 3130 3131
3122 3122 3122 3122 3123 3123 3124 3124 3125 3126 3126 3126 3126 3125 3126 3125 3126 3126 3127 3128 3129 3130 3130 3131 3131 3132 3133 3133 3134 3134 3135 3135 3136 3136 3135 3134 3133 3134 3133 3133 3132 3131 3131 3132 3131 3131 3130 3129 3131
3120 3121 3121 3121 3121 3122 3122 3123 3123 3124 3124 3125 3124 3123 3124 3124 3124 3124 3125 3126 3127 3127 3128 3129 3130 3131 3132 3132 3133 3133 3134 3134 3134 3135 3135 3133 3132 3132 3132 3132 3132 3132 3131 3131 3131 3131 3131 3130 3131
3118 3119 3119 3119 3119 3120 3120 3120 3121 3121 3122 3122 3122 3122 3122 3122 3122 3122 3123 3124 3125 3126 3127 3128 3129 3129 3130 3131 3132 3133 3133 3133 3133 3134 3134 3133 3132 3131 3130 3131 3131 3131 3131 3130 3131 3132 3131 3131 3131
3116 3117 3117 3118 3117 3118 3118 3119 3119 3119 3119 3119 3119 3119 3119 3119 3120 3120 3121 3122 3123 3124 3125 3126 3127 3128 3129 3130 3131 3131 3132 3132 3132 3132 3132 3132 3132 3130 3129 3130 3130 3130 3130 3130 3130 3131 3131 3131 3131
3114 3115 3116 3116 3116 3116 3116 3116 3116 3116 3115 3116 3115 3115 3115 3115 3116 3117 3118 3119 3120 3121 3122 3124 3125 3126 3127 3128 3129 3130 3131 3131 3131 3131 3131 3131 3131 3130 3129 3129 3129 3129 3129 3129 3129 3130 3131 3131 3132
3113 3114 3114 3114 3114 3115 3115 3114 3113 3112 3112 3110 3111 3110 3111 3112 3113 3114 3115 3116 3117 3119 3120 3121 3122 3123 3124 3126 3127 3128 3129 3130 3130 3130 3130 3130 3130 3129 3129 3129 3129 3129 3128 3128 3128 3129 3129 3130 3130
3113 3113 3113 3113 3113 3113 3112 3111 3110 3109 3107 3107 3107 3107 3107 3108 3109 3110 3111 3112 3114 3116 3117 3118 3120 3121 3122 3124 3125 3126 3127 3128 3128 3128 3129 3129 3129 3129 3129 3129 3128 3128 3128 3128 3128 3127 3128 3128 3129
3112 3112 3112 3112 3112 3112 3110 3108 3106 3105 3104 3103 3103 3103 3103 3104 3105 3106 3107 3108 3110 3112 3113 3115 3117 3118 3120 3121 3122 3124 3125 3126 3127 3127 3128 3128 3128 3128 3128 3128 3128 3127 3127 3127 3127 3126 3127 3127 3128
3112 3112 3111 3111 3110 3110 3108 3105 3105 3104 3102 3100 3100 3099 3099 3100 3101 3102 3104 3105 3107 3108 3110 3112 3113 3115 3117 3118 3120 3121 3123 3124 3125 3125 3126 3126 3126 3126 3127 3127 3127 3126 3126 3125 3124 3124 3125 3125 3126
3112 3111 3110 3110 3109 3107 3106 3104 3102 3101 3100 3097 3095 3095 3095 3096 3097 3099 3100 3102 3103 3104 3106 3108 3110 3112 3114 3115 3117 3119 3120 3121 3122 3123 3123 3124 3124 3125 3125 3125 3126 3126 3125 3124 3123 3122 3122 3122 3123
3110 3110 3109 3108 3106 3105 3104 3102 3098 3097 3096 3094 3092 3091 3090 3091 3092 3094 3096 3097 3099 3100 3103 3104 3106 3108 3110 3112 3115 3116 3118 3119 3120 3121 3121 3122 3122 3123 3123 3124 3124 3124 3124 3124 3122 3121 3120 3121 3120
3109 3108 3107 3106 3104 3102 3101 3099 3096 3094 3093 3092 3090 3088 3087 3087 3089 3090 3092 3093 3095 3096 3098 3100 3102 3105 3107 3110 3112 3114 3115 3117 3117 3118 3119 3119 3120 3120 3121 3121 3121 3121 3122 3121 3121 3120 3118 3118 3117
3107 3106 3104 3103 3102 3099 3098 3096 3093 3092 3091 3090 3088 3086 3084 3083 3084 3086 3088 3090 3091 3093 3094 3096 3098 3100 3103 3106 3108 3110 3111 3112 3113 3114 3115 3116 3116 3117 3117 3117 3117 3118 3118 3118 3117 3117 3116 3115 3115
3104 3103 3101 3100 3098 3096 3093 3091 3089 3089 3089 3087 3086 3084 3082 3081 3082 3083 3085 3086 3087 3088 3089 3091 3094 3096 3099 3102 3104 3106 3107 3109 3110 3111 3112 3112 3113 3114 3113 3113 3113 3113 3113 3113 3113 3112 3112 3111 3110
3101 3100 3099 3097 3096 3094 3090 3088 3086 3086 3086 3086 3084 3083 3081 3080 3080 3081 3082 3083 3083 3083 3085 3087 3089 3092 3095 3097 3100 3102 3104 3106 3107 3107 3108 3109 3109 3109 3109 3109 3108 3108 3108 3108 3107 3107 3107 3106 3106
3098 3097 3096 3095 3092 3090 3086 3084 3083 3084 3084 3083 3082 3081 3080 3079 3079 3079 3080 3080 3080 3081 3081 3083 3086 3088 3091 3094 3096 3098 3100 3101 3102 3103 3104 3104 3105 3105 3105 3105 3104 3103 3103 3103 3102 3101 3101 3101 3100
3095 3094 3093 3091 3091 3089 3086 3085 3080 3080 3080 3080 3079 3079 3078 3077 3077 3077 3078 3078 3078 3078 3079 3080 3083 3085 3087 3090 3092 3094 3096 3097 3098 3099 3099 3100 3100 3100 3100 3099 3099 3098 3097 3097 3096 3095 3095 3096 3095
3093 3091 3090 3088 3086 3085 3082 3083 3075 3076 3076 3076 3076 3076 3076 3075 3076 3076 3076 3075 3075 3075 3076 3077 3079 3081 3083 3086 3088 3090 3091 3092 3093 3094 3094 3094 3094 3094 3094 3093 3092 3092 3092 3091 3091 3090 3089 3089 3090
3089 3088 3087 3084 3082 3083 3078 3079 3072 3071 3072 3071 3072 3073 3074 3074 3074 3074 3074 3072 3072 3073 3073 3074 3076 3078 3080 3082 3084 3085 3086 3087 3088 3088 3089 3089 3089 3088 3088 3088 3087 3086 3086 3085 3085 3084 3082 3081 3081
3086 3086 3085 3086 3084 3080 3075 3075 3067 3065 3065 3066 3067 3069 3071 3071 3071 3071 3070 3069 3069 3070 3071 3072 3073 3074 3075 3076 3077 3079 3079 3080 3081 3081 3082 3082 3081 3081 3081 3081 3080 3079 3079 3078 3078 3077 3076 3075 3074
3083 3084 3085 3091 3084 3075 3074 3065 3058 3059 3059 3061 3063 3065 3066 3067 3067 3067 3067 3066 3065 3066 3067 3067 3069 3069 3070 3071 3072 3072 3073 3073 3073 3073 3074 3074 3074 3074 3073 3073 3072 3071 3070 3069 3069 3069 3068 3068 3067
3079 3079 3080 3078 3076 3076 3063 3057 3054 3054 3054 3056 3058 3060 3061 3062 3063 3063 3063 3063 3062 3062 3062 3062 3063 3064 3065 3067 3067 3067 3067 3067 3067 3067 3067 3067 3066 3066 3065 3064 3063 3062 3061 3060 3059 3060 3059 3059 3059
3076 3077 3076 3076 3078 3076 3056 3052 3047 3048 3049 3051 3053 3055 3057 3058 3058 3059 3060 3059 3059 3058 3058 3058 3059 3060 3060 3060 3060 3060 3060 3059 3059 3059 3059 3059 3058 3057 3056 3056 3054 3053 3052 3051 3050 3050 3049 3050 3050
3070 3068 3070 3071 3068 3065 3061 3045 3045 3045 3046 3047 3048 3050 3052 3052 3054 3054 3054 3052 3053 3053 3053 3054 3053 3053 3053 3053 3052 3052 3052 3052 3052 3051 3051 3050 3049 3048 3047 3046 3045 3043 3042 3040 3040 3041 3040 3040 3040
3062 3061 3063 3064 3060 3058 3056 3036 3041 3041 3041 3042 3043 3045 3046 3047 3048 3048 3047 3046 3045 3045 3045 3045 3045 3045 3045 3045 3045 3045 3045 3045 3044 3043 3042 3040 3040 3038 3037 3035 3034 3033 3032 3031 3030 3030 3029 3029 3029